Time,TemperatureF,DewpointF,PressureIn,WindDirection,WindDirectionDegrees,WindSpeedMPH,WindSpeedGustMPH,Humidity,HourlyPrecipIn,Conditions,Clouds,dailyrainin,SoftwareType,DateUTC
2013-06-12 00:06:00,79.2,66.4,29.78,South,180,16.6,-999.0,65,-99.99,,,0.00,Acu-Link.com,2013-06-12 05:06:00,
2013-06-12 00:21:00,79.5,66.7,29.78,South,180,13.0,-999.0,65,-99.99,,,0.00,Acu-Link.com,2013-06-12 05:21:00,
2013-06-12 00:37:00,79.3,66.5,29.78,ESE,112,9.4,-999.0,65,-99.99,,,0.00,Acu-Link.com,2013-06-12 05:37:00,
2013-06-12 00:52:00,79.5,66.7,29.79,South,180,9.9,-999.0,65,-99.99,,,0.00,Acu-Link.com,2013-06-12 05:52:00,
2013-06-12 01:07:00,79.3,66.5,29.78,South,180,8.9,-999.0,65,-99.99,,,0.00,Acu-Link.com,2013-06-12 06:07:00,
2013-06-12 01:22:00,79.0,66.7,29.77,SSE,157,14.5,-999.0,66,-99.99,,,0.00,Acu-Link.com,2013-06-12 06:22:00,
2013-06-12 01:37:00,78.4,66.5,29.77,SSE,157,8.9,-999.0,67,-99.99,,,0.00,Acu-Link.com,2013-06-12 06:37:00,
2013-06-12 01:53:00,78.1,66.2,29.78,South,180,5.8,-999.0,67,-99.99,,,0.00,Acu-Link.com,2013-06-12 06:53:00,
2013-06-12 02:08:00,77.7,66.3,29.77,SW,225,7.3,-999.0,68,-99.99,,,0.00,Acu-Link.com,2013-06-12 07:08:00,
2013-06-12 02:23:00,77.4,66.4,29.76,SSE,157,10.4,-999.0,69,-99.99,,,0.00,Acu-Link.com,2013-06-12 07:23:00,
2013-06-12 02:38:00,77.0,66.4,29.75,SSW,202,13.0,-999.0,70,-99.99,,,0.00,Acu-Link.com,2013-06-12 07:38:00,
2013-06-12 02:54:00,77.2,67.1,29.75,South,180,13.0,-999.0,71,-99.99,,,0.00,Acu-Link.com,2013-06-12 07:54:00,
2013-06-12 03:09:00,77.0,67.3,29.76,South,180,13.5,-999.0,72,-99.99,,,0.00,Acu-Link.com,2013-06-12 08:09:00,
2013-06-12 03:24:00,76.6,67.7,29.75,SSE,157,14.0,-999.0,74,-99.99,,,0.00,Acu-Link.com,2013-06-12 08:24:00,
2013-06-12 03:39:00,76.6,68.1,29.74,SSW,202,19.1,-999.0,75,-99.99,,,0.00,Acu-Link.com,2013-06-12 08:39:00,
2013-06-12 03:54:00,76.5,68.7,29.73,SSW,202,13.5,-999.0,77,-99.99,,,0.00,Acu-Link.com,2013-06-12 08:54:00,
2013-06-12 04:09:00,76.3,68.9,29.74,South,180,8.9,-999.0,78,-99.99,,,0.00,Acu-Link.com,2013-06-12 09:09:00,
2013-06-12 04:24:00,75.9,69.3,29.77,SSW,202,3.2,-999.0,80,-99.99,,,0.00,Acu-Link.com,2013-06-12 09:24:00,
2013-06-12 04:39:00,75.6,69.3,29.83,NW,315,4.7,-999.0,81,-99.99,,,0.00,Acu-Link.com,2013-06-12 09:39:00,
2013-06-12 04:55:00,75.4,69.2,29.84,NW,315,4.2,-999.0,81,-99.99,,,0.00,Acu-Link.com,2013-06-12 09:55:00,
2013-06-12 05:10:00,75.2,68.6,29.82,West,270,1.1,-999.0,80,-99.99,,,0.00,Acu-Link.com,2013-06-12 10:10:00,
2013-06-12 05:25:00,73.9,68.8,29.79,South,180,4.2,-999.0,84,-99.99,,,0.00,Acu-Link.com,2013-06-12 10:25:00,
2013-06-12 05:41:00,73.9,68.8,29.80,ENE,67,7.3,-999.0,84,-99.99,,,0.00,Acu-Link.com,2013-06-12 10:41:00,
2013-06-12 05:56:00,73.8,69.0,29.79,SSE,157,3.2,-999.0,85,-99.99,,,0.00,Acu-Link.com,2013-06-12 10:56:00,
2013-06-12 06:11:00,74.1,69.3,29.77,South,180,6.3,-999.0,85,-99.99,,,0.00,Acu-Link.com,2013-06-12 11:11:00,
2013-06-12 06:26:00,73.6,69.1,29.77,SSE,157,4.7,-999.0,86,-99.99,,,0.00,Acu-Link.com,2013-06-12 11:26:00,
2013-06-12 06:41:00,73.4,69.3,29.77,ESE,112,2.7,-999.0,87,-99.99,,,0.00,Acu-Link.com,2013-06-12 11:41:00,
2013-06-12 06:57:00,74.1,69.6,29.77,SSE,157,3.7,-999.0,86,-99.99,,,0.00,Acu-Link.com,2013-06-12 11:57:00,
2013-06-12 07:12:00,75.0,69.8,29.76,South,180,3.7,-999.0,84,-99.99,,,0.00,Acu-Link.com,2013-06-12 12:12:00,
2013-06-12 07:27:00,77.0,70.3,29.78,SE,135,3.2,-999.0,80,-99.99,,,0.00,Acu-Link.com,2013-06-12 12:27:00,
2013-06-12 07:42:00,79.9,70.9,29.77,SSE,157,4.2,-999.0,74,-99.99,,,0.00,Acu-Link.com,2013-06-12 12:42:00,
2013-06-12 07:57:00,80.8,70.9,29.78,SSW,202,5.8,-999.0,72,-99.99,,,0.00,Acu-Link.com,2013-06-12 12:57:00,
2013-06-12 08:13:00,80.4,70.9,29.78,South,180,5.8,-999.0,73,-99.99,,,0.00,Acu-Link.com,2013-06-12 13:13:00,
2013-06-12 08:28:00,81.3,71.4,29.79,ESE,112,5.8,-999.0,72,-99.99,,,0.00,Acu-Link.com,2013-06-12 13:28:00,
2013-06-12 08:43:00,81.7,71.8,29.78,East,90,7.8,-999.0,72,-99.99,,,0.00,Acu-Link.com,2013-06-12 13:43:00,
2013-06-12 08:58:00,81.5,71.6,29.78,SSW,202,7.8,-999.0,72,-99.99,,,0.00,Acu-Link.com,2013-06-12 13:58:00,
2013-06-12 09:14:00,83.5,72.2,29.78,ESE,112,5.3,-999.0,69,-99.99,,,0.00,Acu-Link.com,2013-06-12 14:14:00,
2013-06-12 09:30:00,83.7,71.6,29.78,SSW,202,2.7,-999.0,67,-99.99,,,0.00,Acu-Link.com,2013-06-12 14:30:00,
2013-06-12 09:45:00,87.1,72.0,29.79,East,90,2.7,-999.0,61,-99.99,,,0.00,Acu-Link.com,2013-06-12 14:45:00,
2013-06-12 10:01:00,84.7,72.5,29.80,SSE,157,2.2,-999.0,67,-99.99,,,0.00,Acu-Link.com,2013-06-12 15:01:00,
2013-06-12 10:16:00,85.6,72.9,29.79,ENE,67,0.0,-999.0,66,-99.99,,,0.00,Acu-Link.com,2013-06-12 15:16:00,
2013-06-12 10:31:00,86.7,72.6,29.80,West,270,2.7,-999.0,63,-99.99,,,0.00,Acu-Link.com,2013-06-12 15:31:00,
2013-06-12 10:46:00,87.3,71.7,29.80,NW,315,2.2,-999.0,60,-99.99,,,0.00,Acu-Link.com,2013-06-12 15:46:00,
2013-06-12 11:02:00,86.4,70.3,29.81,West,270,2.7,-999.0,59,-99.99,,,0.00,Acu-Link.com,2013-06-12 16:02:00,
2013-06-12 11:17:00,86.9,71.8,29.82,West,270,4.2,-999.0,61,-99.99,,,0.00,Acu-Link.com,2013-06-12 16:17:00,
2013-06-12 11:32:00,87.8,71.7,29.82,NW,315,5.8,-999.0,59,-99.99,,,0.00,Acu-Link.com,2013-06-12 16:32:00,
2013-06-12 11:47:00,88.9,72.7,29.82,West,270,2.2,-999.0,59,-99.99,,,0.00,Acu-Link.com,2013-06-12 16:47:00,
2013-06-12 12:02:00,88.9,73.2,29.83,WNW,292,2.7,-999.0,60,-99.99,,,0.00,Acu-Link.com,2013-06-12 17:02:00,
2013-06-12 12:18:00,89.8,72.5,29.83,North,0,5.8,-999.0,57,-99.99,,,0.00,Acu-Link.com,2013-06-12 17:18:00,
2013-06-12 12:33:00,90.0,73.7,29.83,West,270,2.2,-999.0,59,-99.99,,,0.00,Acu-Link.com,2013-06-12 17:33:00,
2013-06-12 12:48:00,89.8,70.9,29.82,SW,225,6.8,-999.0,54,-99.99,,,0.00,Acu-Link.com,2013-06-12 17:48:00,
2013-06-12 13:04:00,90.0,71.1,29.84,NNE,22,2.7,-999.0,54,-99.99,,,0.00,Acu-Link.com,2013-06-12 18:04:00,
2013-06-12 13:19:00,90.0,71.1,29.84,North,0,5.3,-999.0,54,-99.99,,,0.00,Acu-Link.com,2013-06-12 18:19:00,
2013-06-12 13:34:00,90.3,70.2,29.84,NNW,337,7.3,-999.0,52,-99.99,,,0.00,Acu-Link.com,2013-06-12 18:34:00,
2013-06-12 13:49:00,90.3,72.4,29.85,North,0,4.2,-999.0,56,-99.99,,,0.00,Acu-Link.com,2013-06-12 18:49:00,
2013-06-12 14:04:00,90.0,72.2,29.85,West,270,8.9,-999.0,56,-99.99,,,0.00,Acu-Link.com,2013-06-12 19:04:00,
2013-06-12 14:20:00,90.9,73.0,29.85,NW,315,8.9,-999.0,56,-99.99,,,0.00,Acu-Link.com,2013-06-12 19:20:00,
2013-06-12 14:35:00,90.3,71.9,29.85,NNW,337,8.3,-999.0,55,-99.99,,,0.00,Acu-Link.com,2013-06-12 19:35:00,
2013-06-12 14:50:00,91.2,73.3,29.85,NW,315,6.8,-999.0,56,-99.99,,,0.00,Acu-Link.com,2013-06-12 19:50:00,
2013-06-12 15:05:00,89.6,71.8,29.86,WNW,292,6.8,-999.0,56,-99.99,,,0.00,Acu-Link.com,2013-06-12 20:05:00,
2013-06-12 15:20:00,90.3,70.8,29.86,NW,315,5.8,-999.0,53,-99.99,,,0.00,Acu-Link.com,2013-06-12 20:20:00,
2013-06-12 15:36:00,90.1,70.1,29.87,West,270,8.9,-999.0,52,-99.99,,,0.00,Acu-Link.com,2013-06-12 20:36:00,
2013-06-12 15:51:00,89.8,70.3,29.87,West,270,5.8,-999.0,53,-99.99,,,0.00,Acu-Link.com,2013-06-12 20:51:00,
2013-06-12 16:06:00,89.4,71.1,29.88,NNW,337,5.8,-999.0,55,-99.99,,,0.00,Acu-Link.com,2013-06-12 21:06:00,
2013-06-12 16:21:00,88.9,70.1,29.88,North,0,6.8,-999.0,54,-99.99,,,0.00,Acu-Link.com,2013-06-12 21:21:00,
2013-06-12 16:36:00,88.3,69.5,29.88,NNW,337,5.3,-999.0,54,-99.99,,,0.00,Acu-Link.com,2013-06-12 21:36:00,
2013-06-12 16:52:00,88.2,70.0,29.88,West,270,6.3,-999.0,55,-99.99,,,0.00,Acu-Link.com,2013-06-12 21:52:00,
2013-06-12 17:07:00,88.2,68.3,29.89,NW,315,9.4,-999.0,52,-99.99,,,0.00,Acu-Link.com,2013-06-12 22:07:00,
2013-06-12 17:22:00,87.1,66.7,29.90,WNW,292,6.8,-999.0,51,-99.99,,,0.00,Acu-Link.com,2013-06-12 22:22:00,
2013-06-12 17:37:00,86.4,66.1,29.90,NNW,337,6.3,-999.0,51,-99.99,,,0.00,Acu-Link.com,2013-06-12 22:37:00,
2013-06-12 17:53:00,86.0,66.3,29.90,NW,315,6.8,-999.0,52,-99.99,,,0.00,Acu-Link.com,2013-06-12 22:53:00,
2013-06-12 18:08:00,86.4,64.9,29.91,North,0,7.3,-999.0,49,-99.99,,,0.00,Acu-Link.com,2013-06-12 23:08:00,
2013-06-12 18:23:00,84.7,64.0,29.91,NNW,337,6.8,-999.0,50,-99.99,,,0.00,Acu-Link.com,2013-06-12 23:23:00,
2013-06-12 18:38:00,83.3,63.8,29.92,West,270,5.8,-999.0,52,-99.99,,,0.00,Acu-Link.com,2013-06-12 23:38:00,
2013-06-12 18:53:00,82.0,63.2,29.93,NNW,337,5.3,-999.0,53,-99.99,,,0.00,Acu-Link.com,2013-06-12 23:53:00,
2013-06-12 19:09:00,81.3,63.6,29.93,NNW,337,3.7,-999.0,55,-99.99,,,0.00,Acu-Link.com,2013-06-13 00:09:00,
2013-06-12 19:24:00,80.6,62.9,29.94,West,270,7.8,-999.0,55,-99.99,,,0.00,Acu-Link.com,2013-06-13 00:24:00,
2013-06-12 19:39:00,80.1,61.9,29.95,WNW,292,13.0,-999.0,54,-99.99,,,0.00,Acu-Link.com,2013-06-13 00:39:00,
2013-06-12 19:54:00,79.2,61.1,29.96,West,270,9.4,-999.0,54,-99.99,,,0.00,Acu-Link.com,2013-06-13 00:54:00,
2013-06-12 20:09:00,78.1,60.6,29.97,NNW,337,6.3,-999.0,55,-99.99,,,0.00,Acu-Link.com,2013-06-13 01:09:00,
2013-06-12 20:25:00,77.0,60.1,29.98,NW,315,11.4,-999.0,56,-99.99,,,0.00,Acu-Link.com,2013-06-13 01:25:00,
2013-06-12 20:40:00,75.7,59.4,29.99,NW,315,7.3,-999.0,57,-99.99,,,0.00,Acu-Link.com,2013-06-13 01:40:00,
2013-06-12 20:55:00,74.5,58.7,30.00,WNW,292,14.5,-999.0,58,-99.99,,,0.00,Acu-Link.com,2013-06-13 01:55:00,
2013-06-12 21:10:00,72.5,58.3,30.02,NNW,337,6.8,-999.0,61,-99.99,,,0.00,Acu-Link.com,2013-06-13 02:10:00,
2013-06-12 21:26:00,71.6,57.4,30.03,NW,315,6.8,-999.0,61,-99.99,,,0.00,Acu-Link.com,2013-06-13 02:26:00,
2013-06-12 21:41:00,70.5,56.8,30.05,ESE,112,11.9,-999.0,62,-99.99,,,0.00,Acu-Link.com,2013-06-13 02:41:00,
2013-06-12 21:56:00,69.3,56.6,30.05,NNW,337,8.3,-999.0,64,-99.99,,,0.00,Acu-Link.com,2013-06-13 02:56:00,
2013-06-12 22:11:00,68.7,56.0,30.06,WNW,292,7.8,-999.0,64,-99.99,,,0.00,Acu-Link.com,2013-06-13 03:11:00,
2013-06-12 22:26:00,67.8,56.0,30.07,West,270,4.7,-999.0,66,-99.99,,,0.00,Acu-Link.com,2013-06-13 03:26:00,
2013-06-12 22:42:00,67.1,55.8,30.07,NW,315,9.4,-999.0,67,-99.99,,,0.00,Acu-Link.com,2013-06-13 03:42:00,
2013-06-12 22:57:00,66.7,55.8,30.08,West,270,6.3,-999.0,68,-99.99,,,0.00,Acu-Link.com,2013-06-13 03:57:00,
2013-06-12 23:12:00,66.0,55.5,30.08,WNW,292,6.8,-999.0,69,-99.99,,,0.00,Acu-Link.com,2013-06-13 04:12:00,
2013-06-12 23:27:00,65.8,55.3,30.09,NW,315,5.3,-999.0,69,-99.99,,,0.00,Acu-Link.com,2013-06-13 04:27:00,
2013-06-12 23:42:00,65.1,55.5,30.10,West,270,7.3,-999.0,71,-99.99,,,0.00,Acu-Link.com,2013-06-13 04:42:00,
2013-06-12 23:58:00,64.8,55.6,30.11,NNW,337,7.3,-999.0,72,-99.99,,,0.00,Acu-Link.com,2013-06-13 04:58:00,